Temperature
11 11 11 10 10 9 8 8 7 7 6 6 5 4 3 2 2 2 2 1 1 1 0 -1 -2 -3 -5 -6 -7 -7 -7 -7 -7 -7 -6 -6 -6 -6 -6 -6 -7 -7 -7
11 10 10 10 9 8 8 7 7 6 5 5 4 3 2 2 2 1 1 1 1 0 -1 -2 -3 -5 -6 -7 -7 -8 -8 -7 -7 -7 -7 -7 -7 -6 -7 -7 -7 -7 -7
10 10 9 9 8 8 7 6 6 5 5 4 3 2 2 1 1 1 1 1 -0 -1 -2 -4 -5 -6 -6 -7 -8 -8 -8 -8 -8 -8 -7 -7 -7 -7 -7 -8 -8 -8 -9
10 9 9 8 8 7 6 5 5 4 4 3 2 1 1 1 1 0 0 -0 -1 -2 -4 -5 -6 -6 -7 -8 -8 -8 -8 -8 -7 -8 -8 -7 -8 -8 -8 -8 -9 -9 -9
9 9 8 7 7 6 5 4 4 3 2 2 1 1 0 0 0 -0 -1 -2 -3 -4 -5 -6 -7 -8 -8 -8 -8 -8 -8 -8 -7 -7 -8 -8 -8 -8 -9 -9 -9 -9 -9
8 8 7 6 6 5 4 3 3 2 1 1 0 0 0 -0 -1 -1 -2 -4 -5 -5 -6 -7 -8 -8 -8 -8 -8 -8 -8 -8 -8 -8 -9 -9 -9 -9 -9 -9 -10 -10 -10
7 7 6 5 4 4 3 2 2 1 0 -0 -0 -0 -1 -1 -1 -2 -3 -5 -6 -7 -7 -8 -8 -8 -8 -8 -8 -8 -8 -8 -9 -9 -9 -10 -10 -9 -9 -10 -10 -10 -10
6 5 4 4 3 2 2 1 1 -0 -0 -1 -1 -1 -1 -2 -2 -3 -4 -6 -7 -8 -8 -8 -8 -8 -9 -9 -8 -8 -8 -8 -9 -9 -9 -9 -9 -10 -10 -10 -10 -10 -10
5 4 3 3 2 1 1 0 -0 -1 -1 -1 -1 -2 -2 -3 -4 -4 -5 -7 -8 -8 -8 -8 -9 -9 -9 -8 -8 -9 -9 -9 -9 -9 -10 -10 -10 -10 -10 -10 -10 -11 -11
3 3 2 1 1 0 -0 -1 -1 -1 -2 -2 -2 -3 -4 -4 -4 -5 -7 -8 -9 -8 -8 -9 -9 -9 -9 -9 -9 -10 -10 -9 -9 -10 -10 -9 -9 -9 -10 -10 -11 -11 -12
2 2 1 0 0 -0 -1 -1 -2 -2 -2 -3 -3 -3 -4 -4 -6 -7 -8 -9 -9 -9 -9 -9 -9 -10 -9 -10 -10 -10 -10 -10 -10 -10 -10 -9 -9 -9 -9 -9 -10 -11 -11
1 1 0 -0 -1 -1 -2 -2 -2 -3 -3 -3 -4 -3 -4 -6 -7 -8 -9 -9 -9 -9 -9 -9 -10 -10 -10 -11 -11 -11 -10 -11 -11 -11 -11 -11 -10 -9 -9 -9 -9 -9 -10
0 -0 -1 -1 -2 -2 -2 -2 -3 -4 -4 -4 -5 -5 -6 -7 -7 -8 -9 -9 -9 -9 -9 -10 -10 -11 -10 -10 -10 -11 -11 -11 -11 -12 -12 -10 -10 -9 -9 -9 -9 -9 -9
-1 -1 -2 -2 -2 -2 -3 -3 -4 -4 -4 -5 -7 -7 -8 -8 -9 -9 -10 -9 -9 -10 -10 -10 -10 -10 -10 -10 -10 -10 -10 -11 -12 -12 -11 -10 -10 -9 -9 -9 -9 -9 -9
-1 -2 -2 -2 -3 -3 -4 -4 -4 -5 -6 -7 -8 -9 -9 -10 -10 -10 -9 -9 -9 -10 -10 -11 -10 -10 -10 -10 -10 -10 -11 -11 -11 -10 -10 -10 -9 -9 -9 -9 -10 -9 -10
-2 -2 -2 -3 -3 -4 -4 -4 -5 -6 -7 -7 -8 -9 -9 -10 -11 -10 -10 -10 -10 -11 -11 -11 -11 -11 -11 -11 -11 -11 -11 -10 -10 -10 -10 -9 -9 -10 -10 -9 -9 -9 -10
-2 -3 -3 -4 -4 -4 -5 -6 -6 -6 -6 -7 -8 -9 -9 -9 -11 -10 -10 -11 -11 -11 -11 -11 -12 -12 -11 -11 -11 -11 -11 -10 -10 -10 -9 -9 -9 -9 -9 -9 -9 -9 -9
-3 -3 -4 -4 -5 -6 -6 -7 -7 -8 -8 -8 -8 -9 -9 -9 -10 -11 -12 -11 -10 -10 -11 -12 -12 -12 -11 -11 -11 -11 -10 -10 -9 -9 -9 -9 -9 -9 -9 -9 -9 -9 -9
-4 -4 -5 -5 -6 -6 -7 -8 -8 -8 -9 -9 -9 -9 -9 -10 -11 -11 -11 -11 -11 -11 -12 -12 -11 -11 -11 -11 -11 -10 -10 -9 -9 -8 -8 -8 -9 -9 -9 -8 -8 -8 -9
-5 -5 -6 -6 -7 -7 -8 -8 -8 -9 -10 -10 -10 -10 -10 -12 -11 -11 -11 -11 -12 -12 -12 -12 -11 -11 -11 -11 -10 -10 -9 -8 -8 -8 -8 -8 -8 -8 -8 -8 -8 -8 -8
-5 -6 -6 -7 -7 -7 -8 -9 -9 -10 -10 -10 -10 -10 -12 -12 -11 -11 -11 -12 -12 -12 -12 -11 -11 -11 -10 -10 -10 -9 -8 -8 -8 -8 -8 -8 -8 -8 -8 -8 -7 -8 -8
-6 -6 -6 -7 -7 -8 -9 -9 -10 -10 -10 -10 -11 -11 -11 -11 -11 -11 -12 -12 -12 -12 -12 -11 -11 -10 -10 -9 -9 -8 -8 -8 -8 -8 -8 -7 -7 -7 -7 -7 -7 -7 -8
-6 -6 -7 -7 -8 -9 -9 -10 -10 -10 -11 -11 -11 -11 -11 -11 -11 -11 -12 -12 -11 -11 -11 -11 -10 -10 -9 -9 -8 -8 -8 -8 -8 -8 -7 -7 -7 -7 -7 -7 -7 -7 -8
-6 -7 -7 -8 -9 -9 -10 -10 -10 -11 -11 -11 -11 -11 -11 -11 -11 -11 -11 -11 -11 -10 -10 -10 -10 -9 -9 -8 -8 -7 -7 -7 -7 -7 -7 -7 -7 -7 -7 -7 -7 -7 -8
-7 -7 -8 -9 -9 -10 -10 -10 -11 -11 -11 -11 -11 -11 -11 -11 -11 -11 -11 -11 -10 -10 -10 -10 -9 -9 -8 -8 -7 -7 -7 -7 -7 -7 -7 -6 -6 -7 -6 -7 -7 -7 -7
-7 -8 -9 -9 -10 -10 -11 -11 -11 -11 -11 -11 -11 -11 -11 -11 -11 -11 -11 -10 -10 -10 -10 -9 -9 -8 -8 -7 -7 -7 -7 -7 -7 -7 -6 -6 -6 -6 -6 -6 -6 -7 -7
Wind_Speed
11 11 13 12 12 11 10 9 8 7 7 7 6 5 4 5 4 4 5 5 6 6 6 6 7 7 6 6 6 6 7 9 15 18 14 11 13 11 10 11 14 14 16
12 12 13 12 12 11 10 8 8 8 7 7 6 5 5 5 5 5 6 7 7 7 8 7 8 8 7 7 7 9 10 10 11 18 17 13 14 13 11 11 10 12 11
13 13 13 12 11 10 9 8 8 7 7 7 6 6 5 5 5 5 6 7 7 7 7 8 8 9 8 8 10 10 10 10 9 13 16 15 13 10 11 12 12 11 11
13 13 12 10 10 9 8 8 7 7 7 6 6 5 5 5 6 7 6 6 6 7 7 8 8 8 10 11 10 10 9 10 11 12 14 13 10 10 10 12 12 12 12
13 12 11 10 9 9 8 8 7 7 6 5 5 5 6 6 7 8 5 5 5 7 8 8 9 13 17 15 14 13 13 13 13 11 12 10 11 12 13 13 16 15 13
13 11 10 10 9 8 8 7 7 6 5 5 5 7 7 6 10 13 11 4 5 7 9 9 10 13 15 21 26 26 23 17 13 11 12 14 14 14 14 13 15 15 16
12 11 9 9 9 8 8 7 6 5 4 5 6 6 6 7 12 15 16 6 6 8 10 10 10 11 15 14 22 25 16 20 20 16 15 16 16 16 16 15 14 15 16
11 10 9 9 9 8 7 7 5 3 4 4 5 6 6 8 14 16 17 7 7 9 11 11 11 12 13 19 16 12 10 10 14 14 13 15 15 15 15 16 17 16 16
10 9 8 9 9 8 7 5 3 3 3 4 4 6 7 8 14 18 16 7 8 10 10 10 11 12 20 27 18 13 11 11 17 20 19 22 27 27 21 14 12 14 17
9 9 9 9 9 7 6 3 3 2 3 5 6 6 8 8 14 18 17 7 8 9 8 8 13 17 25 27 18 13 12 15 13 10 13 17 17 18 22 14 12 14 16
10 10 10 9 8 7 5 3 3 3 5 6 6 7 7 9 12 18 18 9 9 9 7 7 8 20 26 27 22 12 16 17 12 12 12 12 12 11 12 12 11 12 15
11 10 9 8 6 5 5 4 4 5 5 6 6 7 6 7 12 16 18 18 18 10 8 8 10 23 26 24 18 19 24 19 11 11 12 12 11 12 13 14 14 14 15
10 9 8 7 6 5 5 5 4 4 4 5 6 7 7 7 8 16 19 21 20 13 10 16 19 23 20 15 19 22 17 10 10 11 12 12 11 12 13 13 14 14 15
10 8 6 6 5 5 4 3 3 4 5 6 7 7 8 8 8 9 10 11 13 12 11 10 16 18 15 15 14 13 10 11 12 11 12 13 13 11 12 12 13 14 14
8 7 5 4 4 3 3 3 4 4 5 6 6 6 8 9 12 18 15 11 11 14 14 7 8 9 10 10 10 10 10 11 11 11 12 13 13 13 13 12 12 13 12
7 5 4 3 2 2 4 5 7 9 12 13 14 12 10 14 19 20 21 21 22 21 12 8 9 10 10 11 12 12 12 12 11 11 11 11 12 13 14 13 12 11 12
6 5 4 3 3 3 3 4 7 9 11 13 15 16 16 16 18 20 20 21 18 15 8 8 9 10 10 11 11 11 12 12 12 11 11 12 12 12 13 13 12 11 11
6 6 3 2 1 2 3 4 4 6 8 9 13 16 17 18 19 19 20 15 10 9 8 9 9 10 11 11 11 11 12 12 11 11 11 12 12 11 12 12 11 12 12
5 3 2 1 2 3 3 4 4 5 6 7 9 11 15 18 17 17 15 8 8 9 9 9 10 10 11 11 11 11 12 13 13 12 11 12 11 11 11 11 12 16 14
3 3 2 1 3 3 4 4 4 5 6 7 8 8 10 11 8 9 8 8 8 9 10 10 10 11 11 11 12 12 12 13 12 11 12 12 11 11 11 12 12 11 10
2 2 3 2 3 3 4 4 5 5 6 7 8 11 16 11 8 9 8 9 9 10 10 11 11 11 12 11 11 12 13 12 12 12 12 12 11 11 11 11 11 10 9
1 2 2 3 3 4 4 4 5 6 7 8 8 11 17 10 7 8 9 9 9 9 9 11 11 11 12 12 12 12 13 13 13 12 12 12 11 11 11 11 10 8 7
1 2 3 3 4 6 6 5 5 6 7 8 8 9 10 9 9 9 10 10 10 10 10 11 12 12 12 12 12 12 13 13 13 14 14 14 12 11 10 10 9 7 5
2 2 3 4 5 5 5 6 6 8 9 9 9 9 10 10 10 11 10 10 10 11 11 11 12 15 17 15 13 13 12 13 14 15 16 12 10 9 9 8 8 7 5
2 3 3 4 5 6 6 7 7 7 9 9 10 10 10 10 10 10 10 10 11 12 13 12 11 14 18 21 19 18 22 28 24 13 8 7 8 8 8 7 6 5 4
3 3 4 4 5 5 6 7 7 8 9 9 9 9 10 10 10 10 10 10 11 12 14 13 15 18 20 19 21 25 29 30 22 14 8 6 7 7 7 5 5 4 4
Wind_Direction
116 116 116 113 111 109 109 110 107 98 94 90 83 67 41 24 13 7 350 330 333 320 307 291 278 263 251 255 260 263 262 265 281 294 298 296 290 288 285 279 272 269 279
116 114 113 112 110 108 107 107 106 103 97 90 78 59 35 16 9 6 340 331 327 315 306 303 293 287 266 265 273 272 267 264 274 290 298 301 297 298 293 284 279 276 269
115 116 113 112 111 111 111 110 107 104 91 76 64 47 26 6 357 340 329 324 317 309 307 303 295 289 284 281 279 277 275 275 274 282 292 298 298 299 295 290 287 282 276
117 118 116 115 115 117 116 112 105 97 82 67 57 44 17 357 344 330 326 320 324 323 312 300 295 292 288 282 283 287 296 296 290 286 285 291 297 299 297 300 299 293 290
119 117 116 116 117 115 112 107 99 86 76 65 48 25 11 356 339 324 319 328 332 313 301 298 295 299 306 309 310 310 305 298 295 295 301 305 306 307 303 301 297 298 292
118 118 119 119 117 114 111 105 93 79 66 51 26 12 1 344 326 328 329 323 310 306 301 290 285 291 301 312 311 307 306 308 314 310 305 304 303 299 296 296 296 300 301
115 118 121 121 115 110 106 96 82 68 50 35 16 0 336 324 329 331 326 317 292 293 288 287 295 303 308 299 298 303 305 311 308 304 298 293 292 292 294 297 296 295 295
116 119 122 115 108 103 94 85 74 53 33 15 349 338 332 331 333 328 323 317 288 279 280 282 289 294 295 301 308 314 303 286 290 293 289 289 291 296 298 300 299 294 290
119 118 115 110 105 98 90 81 68 45 17 340 329 338 334 320 328 330 324 301 284 279 279 280 286 289 304 316 324 316 311 305 303 303 302 305 306 306 307 305 301 300 299
117 110 102 100 102 99 95 78 49 24 347 341 336 330 318 315 326 329 322 307 291 292 284 270 293 311 317 324 326 326 319 310 308 311 311 306 304 301 306 306 301 296 298
107 100 96 97 98 97 87 67 36 10 359 349 325 311 310 312 315 323 324 322 310 309 311 305 301 313 323 328 329 324 309 318 331 322 310 305 303 305 306 301 294 290 293
103 99 96 92 88 86 75 47 28 16 353 332 320 312 301 297 306 320 324 322 319 319 315 303 306 322 328 329 327 321 325 332 324 312 309 309 310 307 304 301 296 288 283
102 101 101 92 77 68 54 33 16 359 340 322 318 310 301 296 294 307 312 313 318 319 310 316 325 328 331 329 324 326 329 321 312 310 311 309 304 301 300 301 301 298 293
108 107 101 89 73 48 33 21 358 341 329 316 306 298 293 292 286 285 286 295 303 304 309 324 330 330 328 325 322 319 317 313 314 311 307 304 305 305 307 310 308 309 309
109 104 97 88 74 42 12 345 331 305 296 305 293 289 297 296 297 309 311 309 311 320 328 330 325 324 322 319 318 317 316 315 311 309 306 306 308 310 310 311 308 309 307
113 110 106 92 63 31 3 343 338 327 325 327 326 318 305 303 309 310 314 322 325 328 327 320 318 318 316 316 317 316 314 313 310 308 304 303 305 308 310 311 310 308 308
115 111 90 73 44 14 352 334 324 327 329 332 332 328 321 317 315 315 324 325 326 328 319 312 311 312 312 311 309 308 308 308 308 303 302 302 304 305 308 309 310 310 309
97 91 87 67 21 324 307 306 306 311 319 322 327 328 326 324 320 326 329 326 320 319 313 311 310 310 308 306 306 307 307 307 306 303 303 303 303 302 304 306 308 308 311
92 84 90 54 313 302 306 305 304 306 308 307 310 319 323 322 325 329 330 323 312 311 312 311 309 307 304 303 304 305 304 304 305 306 303 301 301 302 301 303 304 309 316
69 36 45 352 305 305 302 304 312 312 307 307 312 317 314 317 327 323 321 316 310 309 310 309 308 305 303 303 303 304 304 305 305 303 301 300 300 300 299 300 302 304 307
73 3 347 329 304 305 307 312 312 305 302 305 308 312 323 334 323 315 315 312 311 310 310 308 306 303 301 300 300 300 300 300 300 299 298 298 299 299 300 299 298 300 307
65 326 313 315 320 317 313 316 309 304 305 303 304 310 322 327 314 312 311 310 310 308 305 302 299 298 298 298 298 298 298 298 299 298 296 297 298 297 298 297 299 311 321
33 343 336 335 328 325 325 312 303 305 303 301 304 311 317 316 315 312 309 309 309 306 304 300 298 298 299 298 296 292 291 292 292 292 291 294 294 293 291 296 309 320 325
37 1 345 338 327 322 316 311 310 311 312 311 311 313 314 313 313 309 306 305 305 304 302 300 298 297 299 302 302 299 293 290 287 283 280 280 288 298 305 313 322 328 327
32 3 347 332 321 316 313 310 304 305 309 311 312 313 312 311 308 305 304 305 305 305 305 304 301 301 302 303 303 302 304 308 310 311 311 312 306 305 307 316 329 335 336
11 355 335 319 309 305 303 303 307 311 310 308 308 308 307 305 304 305 305 306 306 306 305 304 303 304 305 305 305 310 315 318 322 332 339 319 308 306 314 328 342 353 342
Height
1457 1462 1467 1471 1476 1480 1482 1484 1485 1486 1486 1486 1485 1484 1483 1480 1478 1475 1473 1471 1468 1465 1461 1458 1454 1450 1446 1442 1438 1434 1429 1424 1413 1400 1398 1393 1389 1386 1381 1377 1372 1368 1362
1457 1462 1466 1470 1474 1477 1480 1482 1482 1482 1483 1483 1482 1480 1479 1476 1473 1471 1469 1466 1463 1459 1456 1451 1448 1443 1439 1436 1432 1427 1422 1418 1411 1399 1391 1387 1382 1378 1372 1367 1361 1357 1351
1456 1462 1465 1469 1473 1476 1478 1480 1480 1480 1480 1479 1477 1476 1475 1473 1470 1467 1464 1461 1458 1454 1450 1445 1440 1437 1432 1428 1424 1419 1415 1410 1405 1397 1387 1381 1375 1370 1363 1357 1352 1345 1338
1455 1461 1464 1468 1472 1474 1476 1477 1477 1477 1476 1475 1474 1473 1471 1469 1466 1463 1459 1457 1453 1448 1444 1439 1435 1430 1426 1421 1417 1413 1409 1404 1398 1390 1382 1374 1368 1363 1358 1350 1341 1336 1328
1454 1460 1463 1468 1471 1472 1473 1474 1474 1473 1472 1472 1471 1470 1468 1465 1462 1459 1454 1450 1446 1441 1437 1433 1429 1425 1421 1417 1413 1408 1402 1396 1390 1382 1376 1369 1364 1357 1351 1344 1335 1326 1319
1454 1458 1463 1466 1468 1469 1470 1471 1470 1470 1470 1469 1468 1466 1463 1461 1458 1454 1450 1445 1440 1436 1432 1427 1423 1419 1414 1410 1406 1400 1396 1391 1385 1378 1370 1363 1357 1351 1345 1338 1330 1322 1310
1454 1458 1462 1464 1466 1467 1468 1468 1468 1468 1467 1466 1463 1461 1459 1456 1453 1448 1444 1439 1434 1430 1426 1422 1417 1413 1408 1401 1395 1391 1387 1384 1380 1374 1364 1356 1351 1345 1339 1331 1324 1316 1307
1453 1457 1460 1462 1464 1465 1465 1466 1466 1465 1464 1462 1460 1457 1454 1451 1446 1442 1437 1433 1429 1426 1422 1417 1411 1405 1399 1395 1389 1384 1379 1374 1370 1363 1358 1352 1347 1341 1334 1327 1318 1309 1299
1452 1456 1459 1460 1462 1463 1463 1464 1463 1462 1460 1458 1456 1452 1449 1445 1441 1436 1431 1427 1424 1420 1416 1411 1406 1400 1395 1391 1385 1377 1369 1364 1360 1356 1351 1346 1340 1333 1327 1320 1311 1303 1291
1452 1455 1457 1458 1460 1461 1462 1462 1460 1458 1456 1454 1451 1448 1444 1439 1435 1431 1426 1423 1419 1414 1410 1406 1402 1396 1390 1385 1379 1371 1363 1357 1352 1346 1341 1337 1331 1325 1320 1314 1306 1297 1288
1451 1453 1455 1458 1459 1460 1460 1459 1457 1455 1452 1450 1447 1444 1440 1435 1430 1426 1423 1419 1415 1410 1405 1401 1396 1390 1385 1379 1373 1366 1360 1355 1348 1341 1335 1329 1323 1318 1313 1307 1301 1293 1284
1450 1452 1455 1457 1458 1458 1457 1456 1453 1451 1448 1445 1442 1438 1435 1430 1426 1421 1418 1415 1411 1407 1401 1396 1391 1385 1379 1372 1366 1361 1357 1350 1343 1336 1330 1324 1319 1313 1307 1300 1293 1287 1279
1450 1453 1455 1456 1456 1456 1455 1453 1450 1447 1444 1440 1436 1432 1428 1424 1421 1417 1414 1410 1406 1403 1398 1393 1386 1380 1373 1366 1361 1357 1351 1344 1337 1332 1327 1321 1315 1308 1301 1293 1286 1280 1272
1450 1452 1453 1453 1453 1453 1451 1449 1446 1443 1440 1436 1431 1427 1423 1419 1416 1412 1409 1406 1402 1397 1392 1386 1381 1374 1368 1363 1357 1352 1346 1340 1335 1330 1323 1317 1311 1304 1297 1290 1281 1274 1265
1449 1450 1451 1451 1451 1450 1448 1446 1444 1440 1436 1432 1428 1424 1419 1415 1412 1410 1408 1403 1399 1393 1387 1380 1374 1369 1363 1358 1353 1348 1342 1336 1331 1326 1319 1313 1307 1300 1293 1286 1279 1271 1264
1448 1449 1449 1449 1448 1447 1446 1444 1441 1439 1434 1430 1426 1422 1416 1413 1409 1406 1404 1399 1394 1388 1382 1376 1370 1365 1360 1355 1349 1343 1338 1333 1327 1321 1316 1310 1303 1296 1289 1283 1276 1269 1262
1447 1448 1448 1448 1447 1445 1443 1440 1437 1434 1432 1428 1423 1418 1414 1409 1405 1403 1399 1394 1388 1383 1377 1372 1368 1363 1358 1353 1347 1340 1334 1329 1324 1318 1312 1306 1300 1293 1287 1280 1274 1267 1260
1447 1447 1447 1446 1445 1443 1440 1437 1433 1429 1426 1422 1419 1414 1410 1406 1402 1399 1394 1389 1383 1379 1374 1369 1364 1360 1355 1350 1344 1337 1331 1325 1320 1314 1309 1304 1297 1290 1284 1278 1272 1266 1260
1446 1446 1446 1444 1442 1440 1437 1434 1431 1427 1422 1418 1414 1410 1407 1402 1398 1395 1390 1385 1380 1375 1371 1366 1362 1357 1352 1347 1341 1335 1328 1323 1317 1312 1306 1300 1294 1288 1281 1276 1271 1266 1260
1446 1445 1444 1443 1441 1438 1435 1431 1427 1423 1419 1415 1411 1406 1402 1398 1394 1390 1386 1381 1377 1372 1368 1363 1359 1354 1349 1344 1338 1331 1325 1320 1315 1309 1303 1297 1291 1285 1280 1275 1270 1264 1259
1445 1444 1442 1440 1438 1435 1431 1428 1424 1420 1416 1413 1409 1405 1401 1396 1391 1387 1382 1378 1374 1369 1365 1360 1356 1352 1347 1341 1334 1328 1323 1317 1312 1306 1300 1294 1289 1284 1279 1274 1269 1263 1258
1443 1442 1440 1438 1435 1432 1428 1424 1421 1417 1414 1410 1405 1401 1397 1393 1388 1383 1379 1375 1371 1367 1362 1358 1354 1349 1344 1337 1331 1326 1320 1315 1309 1303 1298 1292 1287 1282 1278 1273 1268 1264 1259
1441 1439 1437 1435 1431 1428 1424 1421 1418 1414 1410 1406 1401 1397 1393 1388 1384 1380 1376 1372 1368 1364 1360 1356 1351 1346 1340 1334 1330 1324 1318 1312 1307 1302 1296 1291 1286 1281 1276 1272 1269 1264 1260
1438 1437 1434 1431 1427 1424 1421 1418 1414 1410 1406 1402 1397 1393 1389 1385 1381 1377 1373 1369 1364 1361 1357 1353 1348 1343 1337 1332 1328 1323 1317 1311 1305 1300 1295 1290 1285 1281 1277 1273 1269 1265 1261
1435 1433 1430 1427 1424 1421 1417 1414 1410 1406 1402 1398 1393 1389 1385 1381 1377 1373 1369 1366 1362 1358 1354 1350 1345 1340 1335 1330 1326 1321 1315 1310 1305 1301 1296 1291 1286 1282 1277 1274 1270 1266 1263
1432 1429 1426 1423 1420 1417 1413 1410 1406 1402 1398 1394 1389 1385 1381 1377 1374 1370 1366 1363 1359 1355 1352 1348 1343 1338 1333 1329 1324 1319 1313 1308 1304 1299 1295 1291 1286 1282 1279 1274 1271 1268 1265